Wilmington, DE

3:49 AM EDT on May 01, 2017 (GMT -0400)
New Castle County

Weather History for KILG - March, 2014

Change the Weather History Date:

Friday, March 28, 2014

  Actual Average Record
Temperature  
Mean Temperature 51 °F 47 °F  
Max Temperature 66 °F 57 °F 83 °F (1989)
Min Temperature 36 °F 37 °F 20 °F (1982)
Degree Days  
Heating Degree Days 14 18  
Month to date heating degree days 769 629  
Since 1 July heating degree days 4624 4252  
Cooling Degree Days 0 0  
Month to date cooling degree days 0 0  
Year to date cooling degree days 0 0  
Growing Degree Days 2 (Base 50)    
Moisture  
Dew Point 43 °F    
Average Humidity 66    
Maximum Humidity 80    
Minimum Humidity 52    
Precipitation  
Precipitation 0.03 in 0.14 in 2.20 in (1932)
Month to date precipitation 1.63 3.51  
Year to date precipitation 10.21 9.20  
Snow  
Snow 0.00 in 0.10 in 0.90 in (1956)
Month to date snowfall 7.7 1.9  
Since 1 July snowfall 56.1 19.9  
Snow Depth 0.00 in    
Sea Level Pressure  
Sea Level Pressure 30.09 in    
Wind  
Wind Speed 12 mph (SSW)    
Max Wind Speed 26 mph    
Max Gust Speed 37 mph    
Visibility 10 miles    
Events Rain    
T = Trace of Precipitation, MM = Missing Value Source: NWS Daily Summary

Daily Weather History Graph

Daily Weather History Graph

Search for Another Location

Airport or City:

Trip Planner

Search our weather history database for the weather conditions in past years. The results will help you decide how hot, cold, wet, or windy it might be!

Date:

Astronomy

Mar. 28, 2014 Rise Set
Actual Time 6:53 AM EDT 7:22 PM EDT
Civil Twilight 6:26 AM EDT 7:49 PM EDT
Nautical Twilight 5:54 AM EDT 8:21 PM EDT
Astronomical Twilight 5:21 AM EDT 8:54 PM EDT
Moon 5:22 AM EDT (3/28) 5:16 PM EDT (3/28)
Length of Visible Light 13h 23m
Length of Day
12h 29m
Waning Crescent, 6% of the Moon is Illuminated
Mar 28
Waning Crescent
Mar 30
New
Apr 7
First Quarter
Apr 15
Full
Apr 22
Last Quarter

Hourly Weather History & Observations

Time (EDT) Temp. Windchill Dew Point Humidity Pressure Visibility Wind Dir Wind Speed Gust Speed Precip Events Conditions
12:51 AM 37.0 °F 30.4 °F 27.0 °F 67% 30.24 in 10.0 mi SSE 9.2 mph - N/A   Clear
1:51 AM 37.0 °F 31.6 °F 30.0 °F 76% 30.21 in 10.0 mi SSE 6.9 mph - N/A   Clear
2:51 AM 39.0 °F 32.8 °F 30.9 °F 73% 30.18 in 10.0 mi SSE 9.2 mph - N/A   Clear
3:51 AM 41.0 °F 35.2 °F 30.9 °F 67% 30.14 in 10.0 mi SSE 9.2 mph - N/A   Clear
4:51 AM 42.1 °F 36.6 °F 33.1 °F 70% 30.13 in 10.0 mi South 9.2 mph - N/A   Partly Cloudy
5:51 AM 43.0 °F 39.5 °F 35.1 °F 74% 30.13 in 10.0 mi SSE 5.8 mph - N/A   Mostly Cloudy
6:51 AM 48.0 °F - 39.9 °F 74% 30.13 in 10.0 mi SSW 12.7 mph 20.7 mph 0.01 in Rain Light Rain
7:51 AM 48.0 °F - 41.0 °F 77% 30.12 in 10.0 mi SSW 12.7 mph - 0.00 in   Overcast
8:51 AM 50.0 °F - 42.1 °F 74% 30.12 in 10.0 mi SSW 15.0 mph - N/A   Mostly Cloudy
9:51 AM 50.0 °F - 44.1 °F 80% 30.12 in 10.0 mi SSW 9.2 mph - 0.01 in   Overcast
10:51 AM 52.0 °F - 45.0 °F 77% 30.11 in 10.0 mi SSW 16.1 mph 25.3 mph 0.00 in Rain Light Rain
11:51 AM 55.0 °F - 46.9 °F 74% 30.09 in 10.0 mi SSW 13.8 mph 25.3 mph 0.01 in Rain Light Rain
12:51 PM 57.0 °F - 46.9 °F 69% 30.06 in 10.0 mi SSW 23.0 mph 31.1 mph 0.00 in   Overcast
1:51 PM 59.0 °F - 48.0 °F 67% 30.03 in 10.0 mi SSW 21.9 mph 31.1 mph 0.00 in   Overcast
2:51 PM 63.0 °F - 50.0 °F 63% 30.02 in 10.0 mi SW 17.3 mph 25.3 mph 0.00 in   Mostly Cloudy
2:59 PM 62.1 °F - 48.9 °F 62% 30.02 in 10.0 mi SW 17.3 mph 32.2 mph N/A   Overcast
3:51 PM 64.0 °F - 48.9 °F 58% 30.00 in 10.0 mi SW 25.3 mph 36.8 mph N/A   Overcast
4:51 PM 66.0 °F - 48.9 °F 54% 30.00 in 10.0 mi SSW 21.9 mph 34.5 mph N/A   Overcast
5:51 PM 64.9 °F - 48.9 °F 56% 30.01 in 10.0 mi SW 12.7 mph 28.8 mph N/A   Overcast
6:51 PM 64.0 °F - 48.9 °F 58% 30.02 in 10.0 mi SSW 12.7 mph - N/A   Clear
7:51 PM 63.0 °F - 48.9 °F 60% 30.03 in 10.0 mi SW 9.2 mph - N/A   Clear
8:51 PM 61.0 °F - 48.9 °F 64% 30.04 in 10.0 mi SSW 10.4 mph - N/A   Clear
9:51 PM 60.1 °F - 48.9 °F 67% 30.05 in 10.0 mi SSW 6.9 mph - N/A   Clear
10:51 PM 59.0 °F - 50.0 °F 72% 30.07 in 10.0 mi SW 4.6 mph - N/A   Clear
11:51 PM 57.9 °F - 50.0 °F 75% 30.10 in 10.0 mi WSW 5.8 mph - N/A   Clear